Ireland West Airport Knock, Ireland

5:34 PM IST on April 26, 2017 (GMT +0100)
Connaught

Weather History for EIKN - April, 2013

Change the Weather History Date:

Wednesday, April 17, 2013

  Actual Average Record
Temperature  
Mean Temperature 46 °F -  
Max Temperature 57 °F - - ()
Min Temperature 38 °F - - ()
Degree Days  
Heating Degree Days 18    
Moisture  
Dew Point 48 °F    
Average Humidity 89    
Maximum Humidity 100    
Minimum Humidity 67    
Precipitation  
Precipitation 0.39 in - - ()
Sea Level Pressure  
Sea Level Pressure 29.30 in    
Wind  
Wind Speed 16 mph ()    
Max Wind Speed 28 mph    
Max Gust Speed 41 mph    
Visibility 4.3 miles    
Events Fog , Rain    
T = Trace of Precipitation, MM = Missing Value Source: Averaged Metar Reports

Daily Weather History Graph

Daily Weather History Graph

Search for Another Location

Airport or City:

Trip Planner

Search our weather history database for the weather conditions in past years. The results will help you decide how hot, cold, wet, or windy it might be!

Date:

Astronomy

Apr. 17, 2013 Rise Set
Actual Time 6:29 AM IST 8:41 PM IST
Civil Twilight 5:51 AM IST 9:19 PM IST
Nautical Twilight 5:03 AM IST 10:07 PM IST
Astronomical Twilight 4:07 AM IST 11:05 PM IST
Moon 11:11 AM IST (4/17) 2:30 AM IST (4/17)
Length of Visible Light 15h 27m
Length of Day
14h 11m
Waxing Crescent, 40% of the Moon is Illuminated
Apr 17
Waxing Crescent
Apr 18
First Quarter
Apr 25
Full
May 2
Last Quarter
May 10
New

Hourly Weather History & Observations

Time (IST) Temp. Windchill Dew Point Humidity Pressure Visibility Wind Dir Wind Speed Gust Speed Precip Events Conditions
1:00 AM 40 °F - 38 °F 92% 29.81 in - SE 6.7 mph - -  
6:00 AM 44.6 °F 37.2 °F 42.8 °F 93% 29.44 in 1.6 mi SE 17.3 mph - N/A Rain Light Rain
6:30 AM 44.6 °F 37.4 °F 44.6 °F 100% 29.44 in 1.4 mi SE 16.1 mph - N/A Rain Light Rain
7:00 AM 46 °F - 46 °F 100% 29.45 in 1 mi SSE 15.7 mph - - Rain Light Rain
7:00 AM 46.4 °F 39.8 °F 46.4 °F 100% 29.42 in 1.4 mi SSE 16.1 mph - N/A Rain Light Rain
7:30 AM 48.2 °F - 48.2 °F 100% 29.42 in 0.9 mi SSE 15.0 mph 26.5 mph N/A Rain Rain
8:00 AM 48.2 °F - 48.2 °F 100% 29.39 in 0.4 mi SSE 17.3 mph - N/A Fog , Rain Light Rain
8:30 AM 50.0 °F - 50.0 °F 100% 29.39 in 1.9 mi South 18.4 mph 31.1 mph N/A Rain Rain
9:00 AM 51.8 °F - 50.0 °F 94% 29.39 in 1.9 mi South 20.7 mph - N/A Rain Rain
9:30 AM 51.8 °F - 50.0 °F 94% 29.39 in 2.8 mi South 18.4 mph - N/A Rain Rain
10:00 AM 51.8 °F - 51.8 °F 100% 29.36 in 4.3 mi South 20.7 mph 34.5 mph N/A Rain Rain
10:30 AM 51.8 °F - 50.0 °F 94% 29.36 in 4.3 mi South 19.6 mph 31.1 mph N/A Rain Light Rain
11:00 AM 51.8 °F - 50.0 °F 94% 29.33 in 6.2 mi South 19.6 mph 32.2 mph N/A Rain Light Rain
11:30 AM 51.8 °F - 50.0 °F 94% 29.33 in 6.2 mi South 19.6 mph - N/A   Mostly Cloudy
12:00 PM 53.6 °F - 50.0 °F 88% 29.30 in 6.2 mi South 20.7 mph - N/A   Mostly Cloudy
12:30 PM 55.4 °F - 50.0 °F 82% 29.30 in 6.2 mi South 24.2 mph 35.7 mph N/A   Mostly Cloudy
1:00 PM 55 °F - 49 °F 76% 29.29 in 11 mi South 26.8 mph - -   Partly Cloudy
1:00 PM 55.4 °F - 50.0 °F 82% 29.27 in 6.2 mi South 27.6 mph - N/A   Mostly Cloudy
1:30 PM 53.6 °F - 48.2 °F 82% 29.27 in 5.0 mi SSW 23.0 mph 40.3 mph N/A Rain Light Rain Showers
2:00 PM 55.4 °F - 50.0 °F 82% 29.24 in 6.2 mi South 25.3 mph 38.0 mph N/A   Mostly Cloudy
2:30 PM 55.4 °F - 44.6 °F 67% 29.21 in 6.2 mi South 27.6 mph 41.4 mph N/A   Scattered Clouds
3:00 PM 55.4 °F - 44.6 °F 67% 29.18 in 6.2 mi South 19.6 mph - N/A   Mostly Cloudy
3:30 PM 53.6 °F - 48.2 °F 82% 29.15 in 5.6 mi South 21.9 mph 39.1 mph N/A   Mostly Cloudy
4:00 PM 53.6 °F - 46.4 °F 77% 29.15 in 4.3 mi South 24.2 mph 39.1 mph N/A Rain Light Rain Showers
4:30 PM 51.8 °F - 48.2 °F 88% 29.12 in 4.3 mi South 21.9 mph - N/A Rain Light Rain Showers
5:00 PM 51.8 °F - 46.4 °F 82% 29.09 in 6.2 mi South 19.6 mph 31.1 mph N/A   Mostly Cloudy
5:30 PM 50.0 °F - 48.2 °F 94% 29.06 in 3.7 mi South 21.9 mph 34.5 mph N/A Rain Light Rain Showers
6:00 PM 51.8 °F - 46.4 °F 82% 29.06 in 5.0 mi South 19.6 mph - N/A   Mostly Cloudy
7:00 PM 47 °F - 46 °F 95% 29.04 in 4 mi South 24.6 mph - - Rain Light Rain Showers